| time (UTC) | temp F | wind direction | speed MPH | gust MPH | rain 1hr in | rain 24hr in | rain mn in | humidity % | barometer mb |
| 20260509201752 | 54 | 272 | 3.0 | 8.0 | 0.00 | 0.00 | 0.27 | 92 | 1006.8 |
| 20260509201252 | 54 | 168 | 4.0 | 10.0 | 0.00 | 0.00 | 0.27 | 92 | 1006.8 |
| 20260509200751 | 54 | 166 | 3.0 | 8.0 | 0.00 | 0.00 | 0.27 | 92 | 1007.1 |
| 20260509200251 | 53 | 232 | 3.0 | 6.0 | 0.00 | 0.00 | 0.27 | 92 | 1007.1 |
| 20260509195751 | 54 | 237 | 2.0 | 6.0 | 0.00 | 0.00 | 0.27 | 93 | 1007.1 |
| 20260509195251 | 53 | 226 | 4.0 | 8.0 | 0.00 | 0.00 | 0.27 | 93 | 1007.1 |
| 20260509194751 | 53 | 213 | 3.0 | 8.0 | 0.00 | 0.00 | 0.27 | 93 | 1007.1 |
| 20260509194252 | 53 | 194 | 3.0 | 8.0 | 0.00 | 0.00 | 0.27 | 93 | 1007.1 |
| 20260509193752 | 53 | 207 | 3.0 | 8.0 | 0.00 | 0.00 | 0.27 | 92 | 1007.1 |
| 20260509193253 | 53 | 215 | 4.0 | 8.0 | 0.00 | 0.00 | 0.27 | 92 | 1007.1 |
| 20260509192751 | 53 | 195 | 3.0 | 6.0 | 0.00 | 0.00 | 0.27 | 93 | 1007.1 |
| 20260509192252 | 53 | 196 | 2.0 | 7.0 | 0.00 | 0.00 | 0.27 | 93 | 1007.5 |
| 20260509191751 | 53 | 164 | 3.0 | 7.0 | 0.00 | 0.00 | 0.27 | 93 | 1007.5 |
| 20260509191251 | 53 | 307 | 3.0 | 7.0 | 0.00 | 0.00 | 0.27 | 93 | 1007.5 |
| 20260509190751 | 53 | 241 | 2.0 | 8.0 | 0.00 | 0.00 | 0.27 | 93 | 1007.5 |
| 20260509190251 | 52 | 12 | 1.0 | 6.0 | 0.00 | 0.00 | 0.27 | 94 | 1007.5 |
| 20260509185751 | 52 | 94 | 1.0 | 3.0 | 0.00 | 0.00 | 0.27 | 94 | 1007.5 |
| 20260509185251 | 52 | 217 | 3.0 | 6.0 | 0.00 | 0.00 | 0.27 | 94 | 1007.5 |
| 20260509184751 | 52 | 247 | 4.0 | 8.0 | 0.00 | 0.00 | 0.27 | 94 | 1007.5 |
| 20260509184251 | 52 | 259 | 3.0 | 7.0 | 0.00 | 0.00 | 0.27 | 94 | 1007.5 |
| 20260509183751 | 52 | 196 | 3.0 | 6.0 | 0.00 | 0.00 | 0.27 | 95 | 1007.5 |
| 20260509183251 | 52 | 260 | 3.0 | 9.0 | 0.00 | 0.00 | 0.27 | 95 | 1007.5 |
| 20260509182752 | 52 | 149 | 2.0 | 6.0 | 0.00 | 0.00 | 0.27 | 95 | 1007.5 |
| 20260509182251 | 52 | 248 | 2.0 | 10.0 | 0.00 | 0.00 | 0.27 | 94 | 1007.5 |
| 20260509181751 | 52 | 206 | 2.0 | 3.0 | 0.00 | 0.00 | 0.27 | 95 | 1007.5 |
| 20260509181251 | 52 | 133 | 1.0 | 5.0 | 0.00 | 0.00 | 0.27 | 95 | 1007.5 |
| 20260509180751 | 52 | 272 | 1.0 | 5.0 | 0.00 | 0.00 | 0.27 | 95 | 1007.5 |
| 20260509180251 | 52 | 127 | 2.0 | 6.0 | 0.00 | 0.00 | 0.27 | 95 | 1007.5 |
| 20260509175752 | 52 | 170 | 1.0 | 3.0 | 0.00 | 0.00 | 0.27 | 96 | 1007.5 |
| 20260509175251 | 51 | 234 | 2.0 | 7.0 | 0.00 | 0.00 | 0.27 | 96 | 1007.5 |
| 20260509174752 | 51 | 147 | 3.0 | 9.0 | 0.00 | 0.00 | 0.27 | 95 | 1007.5 |
| 20260509174252 | 51 | 258 | 4.0 | 9.0 | 0.00 | 0.00 | 0.27 | 96 | 1007.5 |
| 20260509173752 | 51 | 178 | 2.0 | 4.0 | 0.00 | 0.00 | 0.27 | 96 | 1007.5 |
| 20260509173251 | 51 | 180 | 2.0 | 6.0 | 0.00 | 0.00 | 0.27 | 96 | 1007.5 |
| 20260509172751 | 51 | 276 | 2.0 | 5.0 | 0.00 | 0.00 | 0.27 | 96 | 1007.5 |
| 20260509172252 | 51 | 255 | 1.0 | 1.0 | 0.00 | 0.00 | 0.27 | 96 | 1007.5 |
| 20260509171751 | 51 | 255 | 2.0 | 6.0 | 0.00 | 0.00 | 0.27 | 96 | 1007.5 |
| 20260509171251 | 51 | 316 | 2.0 | 5.0 | 0.00 | 0.00 | 0.27 | 96 | 1007.5 |
| 20260509170751 | 51 | 319 | 2.0 | 5.0 | 0.00 | 0.00 | 0.27 | 96 | 1007.5 |
| 20260509170251 | 51 | 275 | 3.0 | 9.0 | 0.00 | 0.00 | 0.27 | 95 | 1007.5 |
| 20260509165751 | 51 | 228 | 2.0 | 7.0 | 0.00 | 0.00 | 0.27 | 96 | 1007.5 |
| 20260509165255 | 51 | 147 | 1.0 | 4.0 | 0.00 | 0.00 | 0.27 | 95 | 1007.5 |
| 20260509164753 | 51 | 245 | 1.0 | 6.0 | 0.00 | 0.00 | 0.27 | 95 | 1007.5 |
| 20260509164251 | 51 | 175 | 2.0 | 10.0 | 0.00 | 0.00 | 0.27 | 96 | 1007.5 |
| 20260509163751 | 51 | 329 | 2.0 | 5.0 | 0.00 | 0.00 | 0.27 | 95 | 1007.8 |
| 20260509163251 | 52 | 305 | 2.0 | 7.0 | 0.00 | 0.00 | 0.27 | 93 | 1007.8 |
| 20260509162751 | 52 | 158 | 2.0 | 6.0 | 0.00 | 0.00 | 0.27 | 93 | 1007.8 |
| 20260509162252 | 52 | 265 | 2.0 | 7.0 | 0.00 | 0.00 | 0.27 | 93 | 1007.8 |
| 20260509161751 | 52 | 213 | 2.0 | 4.0 | 0.00 | 0.00 | 0.27 | 93 | 1007.8 |
| 20260509161252 | 52 | 180 | 2.0 | 7.0 | 0.00 | 0.00 | 0.27 | 93 | 1007.8 |
| 20260509160756 | 52 | 212 | 1.0 | 3.0 | 0.00 | 0.00 | 0.27 | 93 | 1008.1 |
| 20260509160251 | 52 | 266 | 1.0 | 4.0 | 0.00 | 0.00 | 0.27 | 93 | 1007.8 |
| 20260509155751 | 52 | 258 | 2.0 | 5.0 | 0.00 | 0.00 | 0.27 | 94 | 1008.1 |
| 20260509155251 | 51 | 221 | 3.0 | 7.0 | 0.00 | 0.00 | 0.27 | 94 | 1008.1 |
| 20260509154752 | 51 | 118 | 2.0 | 4.0 | 0.00 | 0.00 | 0.27 | 94 | 1008.1 |
| 20260509154251 | 51 | 58 | 2.0 | 5.0 | 0.00 | 0.00 | 0.27 | 94 | 1008.1 |
| 20260509153752 | 51 | 184 | 1.0 | 5.0 | 0.00 | 0.00 | 0.27 | 95 | 1008.1 |
| 20260509153251 | 51 | 60 | 2.0 | 5.0 | 0.00 | 0.00 | 0.27 | 95 | 1008.1 |
| 20260509152752 | 51 | 274 | 1.0 | 4.0 | 0.00 | 0.00 | 0.27 | 96 | 1008.1 |
| 20260509152251 | 50 | 234 | 0.0 | 3.0 | 0.00 | 0.00 | 0.27 | 97 | 1008.5 |
| 20260509151753 | 50 | 315 | 1.0 | 3.0 | 0.00 | 0.00 | 0.27 | 97 | 1008.5 |
| 20260509151251 | 50 | 306 | 2.0 | 6.0 | 0.00 | 0.00 | 0.27 | 97 | 1008.1 |
| 20260509150751 | 50 | 174 | 1.0 | 4.0 | 0.00 | 0.00 | 0.26 | 97 | 1008.1 |
| 20260509150251 | 50 | 259 | 2.0 | 6.0 | 0.00 | 0.00 | 0.26 | 97 | 1008.1 |
| 20260509145751 | 50 | 239 | 1.0 | 4.0 | 0.00 | 0.00 | 0.26 | 97 | 1008.5 |
| 20260509145252 | 50 | 192 | 2.0 | 4.0 | 0.00 | 0.00 | 0.26 | 97 | 1008.5 |
| 20260509144751 | 50 | 144 | 3.0 | 7.0 | 0.00 | 0.00 | 0.26 | 97 | 1008.5 |
| 20260509144252 | 50 | 185 | 1.0 | 3.0 | 0.00 | 0.00 | 0.26 | 97 | 1008.5 |
| 20260509143752 | 49 | 128 | 0.0 | 3.0 | 0.00 | 0.00 | 0.26 | 98 | 1008.5 |
| 20260509143251 | 49 | 250 | 1.0 | 5.0 | 0.00 | 0.00 | 0.26 | 98 | 1008.5 |
| 20260509142751 | 49 | 346 | 1.0 | 4.0 | 0.00 | 0.00 | 0.25 | 98 | 1008.5 |
| 20260509142251 | 49 | 255 | 2.0 | 6.0 | 0.00 | 0.00 | 0.25 | 98 | 1008.5 |
| 20260509141751 | 49 | 217 | 2.0 | 7.0 | 0.00 | 0.00 | 0.25 | 99 | 1008.5 |
| 20260509141252 | 49 | 237 | 1.0 | 3.0 | 0.00 | 0.00 | 0.24 | 99 | 1008.5 |
| 20260509140751 | 49 | 281 | 0.0 | 1.0 | 0.00 | 0.00 | 0.24 | 98 | 1008.8 |
| 20260509140251 | 49 | 352 | 0.0 | 3.0 | 0.00 | 0.00 | 0.23 | 98 | 1008.8 |
| 20260509135751 | 49 | 287 | 0.0 | 2.0 | 0.00 | 0.00 | 0.23 | 99 | 1008.8 |
| 20260509135252 | 49 | 123 | 1.0 | 5.0 | 0.00 | 0.00 | 0.23 | 99 | 1008.8 |
| 20260509134752 | 48 | 245 | 2.0 | 5.0 | 0.00 | 0.00 | 0.22 | 99 | 1008.8 |
| 20260509134252 | 48 | 282 | 1.0 | 4.0 | 0.00 | 0.00 | 0.22 | 99 | 1008.8 |
| 20260509133752 | 48 | 222 | 0.0 | 3.0 | 0.00 | 0.00 | 0.22 | 99 | 1008.8 |
| 20260509133251 | 48 | 216 | 1.0 | 3.0 | 0.00 | 0.00 | 0.21 | 99 | 1008.8 |
| 20260509132751 | 48 | 276 | 1.0 | 3.0 | 0.00 | 0.00 | 0.20 | 98 | 1008.8 |
| 20260509132251 | 48 | 186 | 0.0 | 3.0 | 0.00 | 0.00 | 0.20 | 99 | 1008.8 |
| 20260509131751 | 48 | 328 | 0.0 | 3.0 | 0.00 | 0.00 | 0.20 | 99 | 1008.8 |
| 20260509131251 | 48 | 337 | 0.0 | 2.0 | 0.00 | 0.00 | 0.19 | 99 | 1008.8 |
| 20260509130752 | 47 | 238 | 2.0 | 6.0 | 0.00 | 0.00 | 0.19 | 99 | 1008.8 |
| 20260509130251 | 47 | 267 | 1.0 | 4.0 | 0.00 | 0.00 | 0.18 | 99 | 1008.8 |
| 20260509125751 | 47 | 329 | 1.0 | 4.0 | 0.00 | 0.00 | 0.18 | 99 | 1008.8 |
| 20260509125251 | 47 | 227 | 1.0 | 3.0 | 0.00 | 0.00 | 0.18 | 99 | 1008.8 |
| 20260509124751 | 47 | 335 | 0.0 | 2.0 | 0.00 | 0.00 | 0.18 | 99 | 1008.8 |
| 20260509124251 | 47 | 162 | 1.0 | 3.0 | 0.00 | 0.00 | 0.17 | 99 | 1008.8 |
| 20260509123751 | 47 | 225 | 2.0 | 6.0 | 0.00 | 0.00 | 0.16 | 99 | 1008.8 |
| 20260509123252 | 47 | 250 | 1.0 | 3.0 | 0.00 | 0.00 | 0.16 | 99 | 1009.1 |
| 20260509122752 | 46 | 257 | 1.0 | 3.0 | 0.00 | 0.00 | 0.15 | 99 | 1009.1 |
| 20260509122251 | 46 | 308 | 0.0 | 3.0 | 0.00 | 0.00 | 0.14 | 99 | 1008.8 |
| 20260509121752 | 46 | 95 | 0.0 | 1.0 | 0.00 | 0.00 | 0.13 | 99 | 1009.1 |
| 20260509121251 | 46 | 243 | 0.0 | 1.0 | 0.00 | 0.00 | 0.12 | 99 | 1009.1 |
| 20260509120752 | 46 | 11 | 0.0 | 3.0 | 0.00 | 0.00 | 0.11 | 99 | 1009.1 |
| 20260509120251 | 46 | 313 | 0.0 | 1.0 | 0.00 | 0.00 | 0.10 | 99 | 1009.1 |
| 20260509115751 | 46 | 339 | 0.0 | 1.0 | 0.00 | 0.00 | 0.10 | 99 | 1009.1 |
| 20260509115251 | 45 | 234 | 0.0 | 3.0 | 0.00 | 0.00 | 0.09 | 99 | 1009.1 |
| 20260509114751 | 46 | 205 | 0.0 | 2.0 | 0.00 | 0.00 | 0.08 | 99 | 1009.1 |
| 20260509114251 | 45 | 335 | 0.0 | 3.0 | 0.00 | 0.00 | 0.07 | 99 | 1009.1 |
| 20260509113752 | 45 | 203 | 0.0 | 3.0 | 0.00 | 0.00 | 0.06 | 99 | 1009.1 |
| 20260509113252 | 45 | 74 | 0.0 | 3.0 | 0.00 | 0.00 | 0.04 | 98 | 1009.1 |
| 20260509112751 | 45 | 299 | 0.0 | 1.0 | 0.00 | 0.00 | 0.03 | 98 | 1009.1 |
| 20260509112251 | 45 | 19 | 0.0 | 2.0 | 0.00 | 0.00 | 0.02 | 98 | 1009.1 |
| 20260509111751 | 45 | 242 | 1.0 | 3.0 | 0.00 | 0.00 | 0.01 | 98 | 1009.1 |
| 20260509111251 | 45 | 150 | 1.0 | 3.0 | 0.00 | 0.00 | 0.00 | 98 | 1009.1 |
| 20260509110751 | 45 | 183 | 0.0 | 1.0 | 0.00 | 0.00 | 0.00 | 98 | 1009.1 |
| 20260509110251 | 45 | 285 | 1.0 | 3.0 | 0.00 | 0.00 | 0.00 | 98 | 1009.1 |
| 20260509105751 | 45 | 255 | 0.0 | 3.0 | 0.00 | 0.00 | 0.00 | 98 | 1009.1 |
| 20260509105251 | 45 | 2 | 1.0 | 8.0 | 0.00 | 0.00 | 0.00 | 98 | 1009.1 |
| 20260509104751 | 45 | 220 | 1.0 | 3.0 | 0.00 | 0.00 | 0.00 | 97 | 1008.8 |
| 20260509104251 | 45 | 322 | 0.0 | 2.0 | 0.00 | 0.00 | 0.00 | 97 | 1008.8 |
| 20260509103751 | 44 | 103 | 0.0 | 1.0 | 0.00 | 0.00 | 0.00 | 96 | 1008.8 |
| 20260509103251 | 44 | 27 | 0.0 | 2.0 | 0.00 | 0.00 | 0.00 | 96 | 1008.8 |
| 20260509102751 | 44 | 23 | 0.0 | 1.0 | 0.00 | 0.00 | 0.00 | 95 | 1008.8 |
| 20260509102251 | 44 | 28 | 0.0 | 0.0 | 0.00 | 0.00 | 0.00 | 95 | 1008.8 |
| 20260509101752 | 44 | 41 | 0.0 | 1.0 | 0.00 | 0.00 | 0.00 | 94 | 1008.8 |
| 20260509101251 | 43 | 17 | 0.0 | 1.0 | 0.00 | 0.00 | 0.00 | 94 | 1008.8 |
| 20260509100752 | 43 | 20 | 1.0 | 2.0 | 0.00 | 0.00 | 0.00 | 94 | 1008.8 |
| 20260509100251 | 43 | 264 | 0.0 | 1.0 | 0.00 | 0.00 | 0.00 | 94 | 1008.8 |
| 20260509095753 | 43 | 349 | 0.0 | 1.0 | 0.00 | 0.00 | 0.00 | 94 | 1008.8 |
| 20260509095251 | 43 | 7 | 0.0 | 0.0 | 0.00 | 0.00 | 0.00 | 93 | 1008.8 |
| 20260509094753 | 43 | 352 | 0.0 | 1.0 | 0.00 | 0.00 | 0.00 | 94 | 1008.8 |
| 20260509094251 | 43 | 53 | 0.0 | 1.0 | 0.00 | 0.00 | 0.00 | 93 | 1008.8 |
| 20260509093752 | 43 | 61 | 0.0 | 0.0 | 0.00 | 0.00 | 0.00 | 92 | 1008.8 |
| 20260509093251 | 43 | 0 | 0.0 | 1.0 | 0.00 | 0.00 | 0.00 | 92 | 1008.8 |
| 20260509092751 | 42 | 28 | 0.0 | 1.0 | 0.00 | 0.00 | 0.00 | 92 | 1008.8 |
| 20260509092251 | 42 | 344 | 0.0 | 1.0 | 0.00 | 0.00 | 0.00 | 92 | 1008.8 |
| 20260509091752 | 42 | 124 | 0.0 | 1.0 | 0.00 | 0.00 | 0.00 | 92 | 1008.8 |
| 20260509091251 | 42 | 208 | 0.0 | 2.0 | 0.00 | 0.00 | 0.00 | 92 | 1008.8 |
| 20260509090751 | 42 | 39 | 0.0 | 0.0 | 0.00 | 0.00 | 0.00 | 93 | 1008.8 |
| 20260509090251 | 42 | 10 | 0.0 | 1.0 | 0.00 | 0.00 | 0.00 | 93 | 1009.1 |
| 20260509085751 | 41 | 317 | 0.0 | 1.0 | 0.00 | 0.00 | 0.00 | 93 | 1009.1 |
| 20260509085251 | 41 | 67 | 0.0 | 2.0 | 0.00 | 0.00 | 0.00 | 94 | 1009.1 |
| 20260509084751 | 41 | 248 | 0.0 | 2.0 | 0.00 | 0.00 | 0.00 | 95 | 1008.8 |
| 20260509084251 | 41 | 202 | 0.0 | 1.0 | 0.00 | 0.00 | 0.00 | 95 | 1008.8 |
| 20260509083751 | 41 | 292 | 0.0 | 2.0 | 0.00 | 0.00 | 0.00 | 95 | 1008.8 |
| 20260509083251 | 41 | 4 | 1.0 | 2.0 | 0.00 | 0.00 | 0.00 | 95 | 1009.1 |
| 20260509082753 | 41 | 358 | 0.0 | 2.0 | 0.00 | 0.00 | 0.00 | 95 | 1009.1 |
| 20260509082251 | 41 | 28 | 0.0 | 1.0 | 0.00 | 0.00 | 0.00 | 95 | 1009.5 |
| 20260509081751 | 41 | 341 | 0.0 | 0.0 | 0.00 | 0.00 | 0.00 | 95 | 1009.5 |
| 20260509081252 | 41 | 13 | 0.0 | 0.0 | 0.00 | 0.00 | 0.00 | 95 | 1009.5 |
| 20260509080752 | 41 | 39 | 0.0 | 0.0 | 0.00 | 0.00 | 0.00 | 95 | 1009.1 |
| 20260509080252 | 41 | 4 | 0.0 | 1.0 | 0.00 | 0.00 | 0.00 | 94 | 1009.5 |
| 20260509075751 | 41 | 357 | 0.0 | 0.0 | 0.00 | 0.00 | 0.00 | 94 | 1009.1 |
| 20260509075251 | 41 | 20 | 0.0 | 0.0 | 0.00 | 0.00 | 0.00 | 94 | 1009.5 |
| 20260509074751 | 41 | 44 | 0.0 | 0.0 | 0.00 | 0.00 | 0.00 | 94 | 1009.1 |
| 20260509074251 | 41 | 10 | 0.0 | 1.0 | 0.00 | 0.00 | 0.00 | 94 | 1009.5 |
| 20260509073752 | 41 | 14 | 0.0 | 1.0 | 0.00 | 0.00 | 0.00 | 94 | 1009.5 |
| 20260509073252 | 41 | 355 | 0.0 | 0.0 | 0.00 | 0.00 | 0.00 | 94 | 1009.5 |
| 20260509072751 | 41 | 27 | 0.0 | 1.0 | 0.00 | 0.00 | 0.00 | 93 | 1009.5 |
| 20260509072251 | 41 | 57 | 0.0 | 0.0 | 0.00 | 0.00 | 0.00 | 93 | 1009.5 |
| 20260509071751 | 41 | 6 | 0.0 | 1.0 | 0.00 | 0.00 | 0.00 | 93 | 1009.5 |
| 20260509071251 | 41 | 40 | 0.0 | 0.0 | 0.00 | 0.00 | 0.00 | 93 | 1009.5 |
| 20260509070752 | 41 | 10 | 0.0 | 1.0 | 0.00 | 0.00 | 0.00 | 92 | 1009.5 |
| 20260509070251 | 41 | 32 | 0.0 | 1.0 | 0.00 | 0.00 | 0.00 | 92 | 1009.5 |
| 20260509065751 | 41 | 55 | 0.0 | 1.0 | 0.00 | 0.00 | 0.00 | 92 | 1009.5 |
| 20260509065251 | 41 | 5 | 0.0 | 1.0 | 0.00 | 0.00 | 0.00 | 91 | 1009.5 |
| 20260509064751 | 41 | 59 | 0.0 | 1.0 | 0.00 | 0.00 | 0.00 | 90 | 1009.8 |
| 20260509064251 | 41 | 31 | 0.0 | 1.0 | 0.00 | 0.00 | 0.00 | 90 | 1009.5 |
| 20260509063751 | 41 | 350 | 0.0 | 0.0 | 0.00 | 0.00 | 0.00 | 89 | 1009.8 |
| 20260509063251 | 40 | 32 | 0.0 | 1.0 | 0.00 | 0.00 | 0.00 | 89 | 1009.8 |
| 20260509062752 | 40 | 42 | 0.0 | 1.0 | 0.00 | 0.00 | 0.00 | 89 | 1009.8 |
| 20260509062251 | 40 | 358 | 0.0 | 2.0 | 0.00 | 0.00 | 0.00 | 89 | 1009.8 |
| 20260509061751 | 40 | 354 | 0.0 | 1.0 | 0.00 | 0.00 | 0.00 | 89 | 1010.2 |
| 20260509061251 | 40 | 31 | 0.0 | 1.0 | 0.00 | 0.00 | 0.00 | 90 | 1010.2 |
| 20260509060752 | 39 | 22 | 0.0 | 0.0 | 0.00 | 0.00 | 0.00 | 90 | 1009.8 |
| 20260509060251 | 39 | 18 | 0.0 | 0.0 | 0.00 | 0.00 | 0.00 | 90 | 1009.8 |
| 20260509055751 | 39 | 10 | 0.0 | 1.0 | 0.00 | 0.00 | 0.00 | 89 | 1010.2 |
| 20260509055251 | 39 | 42 | 0.0 | 1.0 | 0.00 | 0.00 | 0.00 | 90 | 1010.2 |
| 20260509054752 | 39 | 41 | 0.0 | 1.0 | 0.00 | 0.00 | 0.00 | 90 | 1010.2 |
| 20260509054251 | 39 | 28 | 0.0 | 2.0 | 0.00 | 0.00 | 0.00 | 90 | 1010.2 |
| 20260509053751 | 39 | 14 | 1.0 | 2.0 | 0.00 | 0.00 | 0.00 | 89 | 1010.2 |
| 20260509053251 | 39 | 43 | 1.0 | 2.0 | 0.00 | 0.00 | 0.00 | 90 | 1010.2 |
| 20260509052751 | 38 | 21 | 0.0 | 2.0 | 0.00 | 0.00 | 0.00 | 90 | 1010.5 |
| 20260509052251 | 38 | 39 | 1.0 | 1.0 | 0.00 | 0.00 | 0.00 | 90 | 1010.5 |
| 20260509051751 | 38 | 56 | 0.0 | 2.0 | 0.00 | 0.00 | 0.00 | 90 | 1010.5 |
| 20260509051251 | 38 | 42 | 1.0 | 2.0 | 0.00 | 0.00 | 0.00 | 90 | 1010.2 |
| 20260509050752 | 38 | 56 | 1.0 | 2.0 | 0.00 | 0.00 | 0.00 | 89 | 1010.5 |
| 20260509050251 | 37 | 17 | 1.0 | 2.0 | 0.00 | 0.00 | 0.00 | 89 | 1010.5 |
| 20260509045751 | 38 | 12 | 1.0 | 2.0 | 0.00 | 0.00 | 0.00 | 90 | 1010.5 |
| 20260509045251 | 38 | 26 | 0.0 | 2.0 | 0.00 | 0.00 | 0.00 | 89 | 1010.5 |
| 20260509044751 | 37 | 15 | 1.0 | 3.0 | 0.00 | 0.00 | 0.00 | 89 | 1010.5 |
| 20260509044251 | 37 | 33 | 1.0 | 3.0 | 0.00 | 0.00 | 0.00 | 89 | 1010.5 |
| 20260509043752 | 37 | 24 | 1.0 | 2.0 | 0.00 | 0.00 | 0.00 | 90 | 1010.5 |
| 20260509043251 | 37 | 21 | 1.0 | 2.0 | 0.00 | 0.00 | 0.00 | 90 | 1010.5 |
| 20260509042751 | 37 | 20 | 1.0 | 2.0 | 0.00 | 0.00 | 0.00 | 89 | 1010.5 |
| 20260509042252 | 37 | 33 | 1.0 | 2.0 | 0.00 | 0.00 | 0.00 | 89 | 1010.5 |
| 20260509041751 | 37 | 38 | 1.0 | 2.0 | 0.00 | 0.00 | 0.00 | 89 | 1010.5 |
| 20260509041251 | 38 | 35 | 1.0 | 2.0 | 0.00 | 0.00 | 0.00 | 90 | 1010.8 |
| 20260509040751 | 38 | 30 | 0.0 | 1.0 | 0.00 | 0.00 | 0.00 | 89 | 1010.8 |
| 20260509040251 | 38 | 39 | 0.0 | 2.0 | 0.00 | 0.00 | 0.16 | 89 | 1010.8 |
| 20260509035751 | 38 | 17 | 0.0 | 1.0 | 0.00 | 0.00 | 0.16 | 90 | 1010.5 |
| 20260509035251 | 38 | 16 | 0.0 | 1.0 | 0.00 | 0.00 | 0.16 | 89 | 1010.5 |
| 20260509034751 | 38 | 41 | 0.0 | 1.0 | 0.00 | 0.00 | 0.16 | 89 | 1010.5 |
| 20260509034251 | 38 | 35 | 0.0 | 1.0 | 0.00 | 0.00 | 0.16 | 89 | 1010.5 |
| 20260509033751 | 39 | 49 | 0.0 | 1.0 | 0.00 | 0.00 | 0.16 | 89 | 1010.5 |
| 20260509033251 | 39 | 11 | 1.0 | 2.0 | 0.00 | 0.00 | 0.16 | 88 | 1010.5 |
| 20260509032752 | 39 | 24 | 0.0 | 1.0 | 0.00 | 0.00 | 0.16 | 88 | 1010.5 |
| 20260509032251 | 39 | 20 | 1.0 | 2.0 | 0.00 | 0.00 | 0.16 | 88 | 1010.5 |
| 20260509031751 | 39 | 28 | 1.0 | 2.0 | 0.00 | 0.00 | 0.16 | 88 | 1010.8 |
| 20260509031251 | 40 | 9 | 0.0 | 1.0 | 0.00 | 0.00 | 0.16 | 88 | 1010.5 |
| 20260509030751 | 40 | 25 | 1.0 | 2.0 | 0.00 | 0.00 | 0.16 | 87 | 1010.8 |
| 20260509025805 | 40 | 47 | 0.0 | 1.0 | 0.00 | 0.00 | 0.16 | 88 | 1010.8 |
| 20260509025251 | 40 | 14 | 1.0 | 2.0 | 0.00 | 0.00 | 0.16 | 88 | 1010.8 |
| 20260509024751 | 40 | 10 | 1.0 | 2.0 | 0.00 | 0.00 | 0.16 | 87 | 1010.8 |
| 20260509024252 | 41 | 36 | 0.0 | 1.0 | 0.00 | 0.00 | 0.16 | 87 | 1010.8 |
| 20260509023751 | 41 | 70 | 0.0 | 2.0 | 0.00 | 0.00 | 0.16 | 86 | 1010.8 |
| 20260509023251 | 41 | 11 | 1.0 | 2.0 | 0.00 | 0.00 | 0.16 | 86 | 1010.8 |
| 20260509022751 | 41 | 35 | 0.0 | 1.0 | 0.00 | 0.00 | 0.16 | 86 | 1010.8 |
| 20260509022252 | 41 | 25 | 0.0 | 1.0 | 0.00 | 0.00 | 0.16 | 86 | 1010.8 |
| 20260509021751 | 41 | 26 | 1.0 | 2.0 | 0.00 | 0.00 | 0.16 | 85 | 1010.8 |
| 20260509021252 | 42 | 21 | 1.0 | 2.0 | 0.00 | 0.00 | 0.16 | 85 | 1010.8 |
| 20260509020751 | 42 | 13 | 0.0 | 1.0 | 0.00 | 0.00 | 0.16 | 86 | 1010.8 |
| 20260509020251 | 42 | 9 | 0.0 | 0.0 | 0.00 | 0.00 | 0.16 | 85 | 1010.8 |
| 20260509015751 | 41 | 7 | 0.0 | 0.0 | 0.00 | 0.00 | 0.16 | 85 | 1010.8 |
| 20260509015252 | 41 | 7 | 0.0 | 1.0 | 0.00 | 0.00 | 0.16 | 86 | 1010.8 |
| 20260509014751 | 41 | 20 | 0.0 | 1.0 | 0.00 | 0.00 | 0.16 | 85 | 1010.8 |
| 20260509014251 | 41 | 26 | 0.0 | 1.0 | 0.00 | 0.00 | 0.16 | 86 | 1010.8 |
| 20260509013751 | 41 | 1 | 0.0 | 1.0 | 0.00 | 0.00 | 0.16 | 85 | 1010.5 |
| 20260509013252 | 41 | 24 | 0.0 | 1.0 | 0.00 | 0.00 | 0.16 | 85 | 1010.5 |
| 20260509012752 | 41 | 34 | 0.0 | 1.0 | 0.00 | 0.00 | 0.16 | 85 | 1010.5 |
| 20260509012251 | 41 | 37 | 0.0 | 1.0 | 0.00 | 0.00 | 0.16 | 85 | 1010.5 |
| 20260509011752 | 42 | 31 | 0.0 | 1.0 | 0.00 | 0.00 | 0.16 | 85 | 1010.5 |
| 20260509011251 | 42 | 49 | 0.0 | 1.0 | 0.00 | 0.00 | 0.16 | 84 | 1010.5 |
| 20260509010753 | 42 | 30 | 0.0 | 1.0 | 0.00 | 0.00 | 0.16 | 84 | 1010.2 |
| 20260509010251 | 42 | 49 | 0.0 | 1.0 | 0.00 | 0.00 | 0.16 | 83 | 1010.2 |
| 20260509005751 | 42 | 34 | 0.0 | 1.0 | 0.00 | 0.00 | 0.16 | 83 | 1010.2 |
| 20260509005251 | 43 | 13 | 1.0 | 2.0 | 0.00 | 0.00 | 0.16 | 83 | 1010.2 |
| 20260509004751 | 43 | 30 | 0.0 | 2.0 | 0.00 | 0.00 | 0.16 | 82 | 1010.2 |
| 20260509004251 | 43 | 30 | 0.0 | 1.0 | 0.00 | 0.00 | 0.16 | 80 | 1010.2 |
| 20260509003751 | 44 | 33 | 1.0 | 2.0 | 0.00 | 0.00 | 0.16 | 79 | 1010.2 |
| 20260509003252 | 44 | 358 | 0.0 | 1.0 | 0.00 | 0.00 | 0.16 | 78 | 1009.8 |
| 20260509002752 | 44 | 43 | 0.0 | 1.0 | 0.00 | 0.00 | 0.16 | 77 | 1009.8 |
| 20260509002251 | 45 | 33 | 0.0 | 1.0 | 0.00 | 0.00 | 0.16 | 77 | 1009.8 |
| 20260509001751 | 45 | 17 | 0.0 | 1.0 | 0.00 | 0.00 | 0.16 | 77 | 1009.8 |
| 20260509001251 | 46 | 39 | 0.0 | 1.0 | 0.00 | 0.00 | 0.16 | 74 | 1009.8 |
| 20260509000752 | 46 | 32 | 0.0 | 2.0 | 0.00 | 0.00 | 0.16 | 74 | 1009.8 |
| 20260509000251 | 47 | 30 | 0.0 | 1.0 | 0.00 | 0.00 | 0.16 | 70 | 1009.8 |
| 20260508235751 | 47 | 30 | 0.0 | 1.0 | 0.00 | 0.00 | 0.16 | 69 | 1009.8 |
| 20260508235251 | 48 | 3 | 0.0 | 0.0 | 0.00 | 0.00 | 0.16 | 67 | 1009.5 |
| 20260508234752 | 49 | 3 | 0.0 | 0.0 | 0.00 | 0.00 | 0.16 | 66 | 1009.5 |
| 20260508234251 | 49 | 4 | 0.0 | 1.0 | 0.00 | 0.00 | 0.16 | 66 | 1009.5 |
| 20260508233751 | 50 | 356 | 0.0 | 1.0 | 0.00 | 0.00 | 0.16 | 65 | 1009.5 |
| 20260508233251 | 50 | 358 | 1.0 | 3.0 | 0.00 | 0.00 | 0.16 | 61 | 1009.5 |
| 20260508232751 | 51 | 14 | 2.0 | 4.0 | 0.00 | 0.00 | 0.16 | 58 | 1009.5 |
| 20260508232251 | 51 | 41 | 1.0 | 3.0 | 0.00 | 0.00 | 0.16 | 58 | 1009.5 |
| 20260508231751 | 51 | 317 | 1.0 | 2.0 | 0.00 | 0.00 | 0.16 | 64 | 1009.5 |
| 20260508231251 | 51 | 21 | 1.0 | 4.0 | 0.00 | 0.00 | 0.16 | 56 | 1009.5 |
| 20260508230751 | 51 | 359 | 1.0 | 4.0 | 0.00 | 0.00 | 0.16 | 57 | 1009.5 |
| 20260508230251 | 51 | 21 | 2.0 | 4.0 | 0.00 | 0.00 | 0.16 | 55 | 1009.5 |
| 20260508225751 | 52 | 34 | 0.0 | 1.0 | 0.00 | 0.00 | 0.16 | 56 | 1009.5 |
| 20260508225252 | 52 | 351 | 1.0 | 3.0 | 0.00 | 0.00 | 0.16 | 56 | 1009.5 |
| 20260508224751 | 52 | 257 | 1.0 | 4.0 | 0.00 | 0.00 | 0.16 | 56 | 1009.5 |
| 20260508224252 | 52 | 66 | 1.0 | 2.0 | 0.00 | 0.00 | 0.16 | 56 | 1009.5 |
| 20260508223751 | 52 | 282 | 0.0 | 2.0 | 0.00 | 0.00 | 0.16 | 60 | 1009.5 |
| 20260508223251 | 52 | 40 | 2.0 | 4.0 | 0.00 | 0.00 | 0.16 | 56 | 1009.5 |
| 20260508222751 | 52 | 296 | 2.0 | 6.0 | 0.00 | 0.00 | 0.16 | 55 | 1009.5 |
| 20260508222252 | 52 | 23 | 1.0 | 3.0 | 0.00 | 0.00 | 0.16 | 55 | 1009.5 |
| 20260508221751 | 52 | 328 | 1.0 | 2.0 | 0.00 | 0.00 | 0.16 | 56 | 1009.1 |
| 20260508221251 | 52 | 35 | 2.0 | 5.0 | 0.00 | 0.00 | 0.16 | 55 | 1009.5 |
| 20260508220751 | 53 | 160 | 1.0 | 5.0 | 0.00 | 0.00 | 0.16 | 55 | 1009.5 |
| 20260508220251 | 53 | 267 | 0.0 | 3.0 | 0.00 | 0.00 | 0.16 | 56 | 1009.5 |
| 20260508215752 | 53 | 287 | 2.0 | 4.0 | 0.00 | 0.00 | 0.16 | 55 | 1009.5 |
| 20260508215251 | 53 | 221 | 2.0 | 6.0 | 0.00 | 0.00 | 0.16 | 53 | 1009.5 |
| 20260508214751 | 53 | 259 | 1.0 | 5.0 | 0.00 | 0.00 | 0.16 | 54 | 1009.5 |
| 20260508214251 | 53 | 74 | 3.0 | 6.0 | 0.00 | 0.00 | 0.16 | 54 | 1009.5 |
| 20260508213751 | 53 | 278 | 4.0 | 9.0 | 0.00 | 0.00 | 0.16 | 54 | 1009.5 |
| 20260508213251 | 54 | 267 | 2.0 | 4.0 | 0.00 | 0.00 | 0.16 | 56 | 1009.5 |
| 20260508212752 | 54 | 357 | 3.0 | 7.0 | 0.00 | 0.00 | 0.16 | 53 | 1009.8 |
| 20260508212251 | 54 | 233 | 3.0 | 6.0 | 0.00 | 0.00 | 0.16 | 53 | 1009.5 |
| 20260508211751 | 53 | 200 | 2.0 | 7.0 | 0.00 | 0.00 | 0.16 | 54 | 1009.5 |
| 20260508211251 | 53 | 332 | 2.0 | 4.0 | 0.00 | 0.00 | 0.16 | 56 | 1009.5 |
| 20260508210751 | 54 | 38 | 3.0 | 9.0 | 0.00 | 0.00 | 0.16 | 52 | 1009.8 |
| 20260508210251 | 55 | 10 | 3.0 | 6.0 | 0.00 | 0.00 | 0.16 | 53 | 1009.5 |
| 20260508205751 | 55 | 340 | 3.0 | 7.0 | 0.00 | 0.00 | 0.16 | 50 | 1009.8 |
| 20260508205251 | 56 | 267 | 2.0 | 5.0 | 0.00 | 0.00 | 0.16 | 50 | 1009.8 |
| 20260508204753 | 56 | 64 | 3.0 | 7.0 | 0.00 | 0.00 | 0.16 | 51 | 1009.8 |
| 20260508204251 | 56 | 286 | 2.0 | 6.0 | 0.00 | 0.00 | 0.16 | 50 | 1009.8 |
| 20260508203751 | 56 | 184 | 4.0 | 9.0 | 0.00 | 0.00 | 0.16 | 49 | 1009.8 |
| 20260508203251 | 56 | 31 | 2.0 | 7.0 | 0.00 | 0.00 | 0.16 | 51 | 1009.8 |
| 20260508202751 | 55 | 211 | 6.0 | 15.0 | 0.00 | 0.00 | 0.16 | 51 | 1009.8 |
| 20260508202251 | 56 | 225 | 3.0 | 7.0 | 0.00 | 0.00 | 0.16 | 53 | 1009.8 |